FW5818 Weather Reports


Display with metric or nautical units.
time (UTC)temp
F
wind
direction
speed
MPH
gust
MPH
rain 1hr
in
rain 24hr
in
rain mn
in
humidity
%
barometer
mb
20260504050106 59 0 0.0 1.0 0.00 0.00 0.00 82 1015.4
20260504044558 59 0 0.0 1.0 0.00 0.00 0.00 83 1015.4
20260504043049 59 0 0.0 0.0 0.00 0.00 0.00 82 1015.4
20260504041549 60 0 0.0 0.0 0.00 0.00 0.00 81 1015.5
20260504040103 60 0 0.0 0.0 0.00 0.00 0.00 81 1015.7
20260504034554 60 0 0.0 0.0 0.00 0.00 0.00 80 1015.8
20260504033056 60 0 0.0 0.0 0.00 0.00 0.00 79 1015.9
20260504031549 61 0 0.0 1.0 0.00 0.00 0.00 79 1015.8
20260504030050 61 0 0.0 0.0 0.00 0.00 0.00 79 1015.9
20260504024551 62 0 0.0 0.0 0.00 0.00 0.00 77 1015.9
20260504023047 63 0 0.0 0.0 0.00 0.00 0.00 76 1015.6
20260504021544 63 0 0.0 0.0 0.00 0.00 0.00 74 1015.5
20260504020051 65 0 0.0 0.0 0.00 0.00 0.00 72 1015.3
20260504014555 66 0 0.0 0.0 0.00 0.00 0.00 70 1015.3
20260504013051 67 0 0.0 0.0 0.00 0.00 0.00 68 1015.2
20260504011548 69 0 0.0 0.0 0.00 0.00 0.00 65 1015.2
20260504010056 70 0 0.0 1.0 0.00 0.00 0.00 61 1015.1
20260504004542 72 0 0.0 1.0 0.00 0.00 0.00 59 1015.0
20260504003051 73 0 0.0 1.0 0.00 0.00 0.00 56 1015.1
20260504001606 75 0 0.0 4.0 0.00 0.00 0.00 53 1015.0
20260504000049 76 128 0.0 5.0 0.00 0.00 0.00 51 1015.2
20260503234545 76 166 0.0 4.0 0.00 0.00 0.00 50 1015.4
20260503233050 77 0 1.0 8.0 0.00 0.00 0.00 48 1015.4
20260503231549 78 224 2.0 7.0 0.00 0.00 0.00 47 1015.4
20260503230051 78 174 1.0 7.0 0.00 0.00 0.00 46 1015.4
20260503224551 79 176 1.0 10.0 0.00 0.00 0.00 45 1015.5
20260503223052 79 155 3.0 11.0 0.00 0.00 0.00 44 1015.6
20260503221551 79 170 2.0 7.0 0.00 0.00 0.00 45 1015.8
20260503220106 79 120 2.0 10.0 0.00 0.00 0.00 43 1015.9
20260503214552 79 181 3.0 9.0 0.00 0.00 0.00 43 1016.0
20260503213052 78 0 3.0 9.0 0.00 0.00 0.00 47 1016.2
20260503211604 78 236 3.0 10.0 0.00 0.00 0.00 45 1016.5
20260503210054 77 107 2.0 10.0 0.00 0.00 0.00 46 1016.7
20260503204553 77 159 2.0 8.0 0.00 0.00 0.00 46 1017.0
20260503203051 77 263 5.0 13.0 0.00 0.00 0.00 45 1017.5
20260503201550 77 145 1.0 7.0 0.00 0.00 0.00 49 1017.8
20260503200049 76 227 2.0 7.0 0.00 0.00 0.00 46 1018.0
20260503194550 76 130 2.0 10.0 0.00 0.00 0.00 47 1018.4
20260503193054 76 154 2.0 9.0 0.00 0.00 0.00 50 1018.6
20260503191555 75 203 2.0 9.0 0.00 0.00 0.00 50 1018.8
20260503190051 74 214 3.0 11.0 0.00 0.00 0.00 48 1019.2
20260503184551 74 128 4.0 10.0 0.00 0.00 0.00 47 1019.4
20260503183050 74 190 3.0 8.0 0.00 0.00 0.00 47 1019.5
20260503181617 73 173 2.0 10.0 0.00 0.00 0.00 46 1019.7
20260503180109 73 207 2.0 9.0 0.00 0.00 0.00 49 1020.0
20260503174554 72 177 1.0 10.0 0.00 0.00 0.00 49 1020.4
20260503173056 71 176 2.0 8.0 0.00 0.00 0.00 50 1020.6
20260503171552 70 213 2.0 8.0 0.00 0.00 0.00 50 1020.8
20260503100104 42 0 0.0 0.0 0.00 0.00 0.00 90 1020.8
20260503081555 43 0 0.0 0.0 0.00 0.00 0.00 89 1020.9
20260503071546 44 0 0.0 0.0 0.00 0.00 0.00 88 1020.9
20260503060111 47 0 0.0 0.0 0.00 0.00 0.00 84 1020.9
20260503054547 47 0 0.0 0.0 0.00 0.00 0.00 83 1020.9
20260503053043 47 0 0.0 0.0 0.00 0.00 0.00 83 1020.9
20260503051541 48 0 0.0 0.0 0.00 0.00 0.00 82 1020.8